Volver al catálogo

ATLAS 5 CENTAUR DEB

ActivoHEO
NORAD 44678·DEBRIS·🇺🇸 United States

Lanzado Oct 17, 2018 desde Cape Canaveral Space Force Station

Loading…

Próximos Pases (próximas 24 horas)

TLE

ActualizadoSource: Space-Track

Época: Sep 8, 2026, 20:25 UTC

1 44678U 18079AQ  26251.85107630 -.00000210  00000-0  00000-0 0  9994
2 44678  13.4601  27.9005 4632069 327.5700  10.8309  1.82225844 52591

Sigue ATLAS 5 CENTAUR DEB en tiempo real con AllMySat

Download on the App Store